x

8452951 - Potter Cove, Prudence Island, Ri (ptcr1) Weather Station

4:54 - Mon 27th Jun 2016 All times are EDT. -4 hours from GMT.

  • Wind
    5mph, 11mph gusts
  • Luft Temp 64°f
  • Sea Pressure 1020.7mb
  • 8452951 - Potter Cove, Prudence Island, Ri
  • 8452951 - Potter Cove, Prudence Island, Ri

More Historic Weather Station data

Upgrade to MSW Pro to gain access to the past 30 days of data for over 8000 Wavebouys and Weather Stations around the globe.

Join Pro

Comparision Forecast

View Surf forecast
   
Mo 06/27 4:54 5 11 mph 1020.7mb 64f
4:48 5 10 mph 1020.7mb 64f
4:42 7 10 mph 1020.8mb 64f
4:36 7 13 mph 1020.7mb 64f
4:30 6 10 mph 1020.7mb 65f
4:24 8 11 mph 1020.7mb 65f
4:18 6 11 mph 1020.7mb 65f
4:12 7 13 mph 1020.6mb 64f
4:06 6 9 mph 1020.6mb 64f
4:00 5 8 mph 1020.7mb 64f
3:54 6 10 mph 1020.7mb 64f
3:48 5 9 mph 1020.7mb 64f
3:42 5 10 mph 1020.8mb 64f
3:36 5 9 mph 1020.8mb 64f
3:30 6 10 mph 1020.8mb 64f
3:24 5 8 mph 1020.7mb 64f
3:18 3 8 mph 1020.8mb 63f
3:12 3 8 mph 1020.9mb 63f
3:06 5 9 mph 1020.9mb 64f
3:00 3 6 mph 1020.9mb 64f
2:54 5 7 mph 1020.8mb 64f
2:48 3 7 mph 1020.8mb -
2:42 6 10 mph 1020.8mb -
2:36 6 9 mph 1020.8mb -
2:30 5 8 mph 1020.8mb 64f
2:24 7 9 mph 1020.9mb 64f
2:18 6 11 mph 1020.9mb 64f
2:12 7 11 mph 1020.8mb 64f
2:06 7 11 mph 1020.8mb 64f
2:00 7 11 mph 1020.7mb 64f
1:54 6 10 mph 1020.7mb 64f
1:48 6 8 mph 1020.8mb -
1:42 5 9 mph 1020.8mb -
1:36 5 8 mph 1020.8mb -
1:30 6 9 mph 1020.9mb 63f
1:24 5 8 mph 1020.9mb 63f
1:18 3 6 mph 1021mb 63f
1:12 3 6 mph 1021mb 63f
1:06 2 6 mph 1020.9mb 63f
1:00 3 6 mph 1020.9mb 63f
12:54 5 8 mph 1021mb 64f
12:48 6 9 mph 1021mb 64f
12:42 6 8 mph 1021mb 64f
12:36 6 9 mph 1021mb 64f
12:30 6 9 mph 1021mb 64f
12:24 5 8 mph 1021mb 64f
12:18 5 7 mph 1021.1mb 64f
12:12 5 8 mph 1021.1mb 64f
12:06 5 9 mph 1021.1mb 64f
12:00 3 6 mph 1021.1mb 64f
So 06/26 11:54 3 8 mph 1021.2mb 64f
11:48 3 8 mph 1021.2mb 64f
11:42 5 8 mph 1021.1mb 64f
11:36 6 10 mph 1021.1mb 65f
11:30 6 9 mph 1021.2mb 65f
11:24 6 9 mph 1021.1mb 65f
11:18 5 8 mph 1021.1mb 65f
11:12 5 8 mph 1021.2mb 65f
11:06 5 8 mph 1021.1mb 65f
11:00  -  mph 1021mb -
10:54  -  mph 1021mb -
10:48  -  mph 1021mb -
10:42  -  mph 1021.1mb -
10:36  -  mph 1021.1mb -
10:30  -  mph 1021.2mb -
10:24  -  mph 1021.3mb -
10:18  -  mph 1021.3mb 65f
10:12  -  mph 1021.4mb 65f
10:06  -  mph 1021.3mb 65f
10:00  -  mph 1021.3mb 65f
9:54  -  mph 1021.3mb 65f
9:48  -  mph 1021.4mb 65f
9:42  -  mph 1021.4mb 65f
9:36  -  mph 1021.4mb 65f
9:30  -  mph 1021.4mb -
9:24  -  mph 1021.4mb -
9:18  -  mph 1021.4mb -
9:12  -  mph 1021.4mb -
9:06  -  mph 1021.3mb -
9:00  -  mph 1021.3mb -
8:54  -  mph 1021.3mb -
8:48  -  mph 1021.3mb -
8:42  -  mph 1021.3mb -
8:36  -  mph 1021.3mb -
8:30  -  mph 1021.3mb -
8:24  -  mph 1021.5mb -
8:18  -  mph 1021.5mb 67f
8:12  -  mph 1021.5mb 68f
8:06  -  mph 1021.6mb 68f
8:00  -  mph 1021.6mb 68f
7:54  -  mph 1021.6mb 69f
7:48  -  mph 1021.7mb 69f
7:42  -  mph 1021.8mb 69f
7:36  -  mph 1021.8mb 69f
7:30 3 7 mph 1021.9mb -
7:24 5 8 mph 1021.9mb -
7:18  -  mph 1022mb 69f
7:12  -  mph 1022mb 69f
7:06  -  mph 1022mb 69f
7:00 5 11 mph 1021.9mb -
6:54 6 11 mph 1022mb -
6:48 5 11 mph 1022.1mb -
6:42 6 10 mph 1022.2mb -
6:36 6 13 mph 1022.2mb -
6:30 5 10 mph 1022.2mb -
6:24 7 11 mph 1022.3mb -
6:18  -  mph 1022.2mb 70f
6:12  -  mph 1022.3mb 70f
6:06  -  mph 1022.4mb 70f
6:00  -  mph 1022.4mb -
5:54  -  mph 1022.4mb -
5:48  -  mph 1022.5mb -
5:42  -  mph 1022.5mb -
5:36  -  mph 1022.5mb -
5:30 6 13 mph 1022.5mb 71f
5:24 6 14 mph 1022.6mb 71f
5:18 6 11 mph 1022.7mb 72f
5:12 6 11 mph 1022.7mb 71f
5:06 7 14 mph 1022.8mb 72f
5:00 6 15 mph 1022.9mb 72f
4:54 6 13 mph 1022.9mb 72f
4:48 7 13 mph 1022.9mb 71f
4:42 6 13 mph 1022.9mb 71f
4:36 7 14 mph 1023mb 71f
4:30 6 14 mph 1023mb 71f
4:24 7 14 mph 1023mb 71f
4:18 7 16 mph 1023mb 71f
4:12 7 15 mph 1023mb 71f
4:06 7 11 mph 1023.1mb 71f
4:00 8 15 mph 1023.1mb 71f
3:54 8 16 mph 1023.1mb 71f
3:48 7 14 mph 1023.2mb 71f
3:42 7 13 mph 1023.2mb 71f
3:36 7 15 mph 1023.3mb 71f
3:30 8 15 mph 1023.3mb 71f
3:24 6 13 mph 1023.4mb 71f
3:18 7 15 mph 1023.4mb 71f
3:12 8 16 mph 1023.5mb 71f
3:06 8 17 mph 1023.6mb 71f
3:00 9 16 mph 1023.6mb 71f
2:54 6 15 mph 1023.7mb 71f
2:48 7 16 mph 1023.7mb 71f
2:42 7 15 mph 1023.6mb 71f
2:36 7 14 mph 1023.6mb 71f
2:30 7 16 mph 1023.6mb 71f
2:24 6 14 mph 1023.7mb 72f
2:18 6 13 mph 1023.6mb 72f
2:12 6 14 mph 1023.7mb 71f
2:06 8 15 mph 1023.7mb 71f
2:00 7 16 mph 1023.7mb 71f
1:54 7 14 mph 1023.7mb 71f
1:48 8 14 mph 1023.8mb 70f
1:42 8 16 mph 1023.7mb 70f
1:36 8 15 mph 1023.8mb 70f
1:30 7 13 mph 1023.8mb 71f
1:24 7 16 mph 1023.9mb 71f
1:18 7 13 mph 1023.8mb 71f
1:12 6 13 mph 1023.8mb 72f
1:06 8 14 mph 1023.8mb 70f
1:00 7 16 mph 1023.7mb 71f
12:54 6 17 mph 1023.7mb 71f
12:48 8 16 mph 1023.8mb 71f
12:42 7 16 mph 1023.8mb 71f
12:36 8 16 mph 1023.9mb 71f
12:30 7 13 mph 1024mb 72f
12:24 8 15 mph 1024mb 71f
12:18 7 14 mph 1023.9mb 72f
12:12 6 13 mph 1023.9mb 72f
12:06 7 15 mph 1023.9mb 72f
12:00 5 13 mph 1023.9mb 72f
11:54 7 13 mph 1023.9mb 71f
11:48 8 14 mph 1024mb 71f
11:42 7 13 mph 1024.2mb 72f
11:36 6 11 mph 1024.3mb 73f
11:30 3 9 mph 1024.2mb 73f
11:24 7 11 mph 1024.1mb 72f
11:18 7 11 mph 1024.1mb 72f
11:12 6 10 mph 1024.1mb 72f
11:06 7 11 mph 1024.1mb 71f
11:00 5 9 mph 1024.1mb 71f
10:54 6 10 mph 1024mb 71f
10:48 5 9 mph 1024.2mb 71f
10:42 6 11 mph 1024.1mb 72f
10:36 5 11 mph 1023.9mb 72f
10:30 5 9 mph 1023.9mb 72f
10:24 3 8 mph 1024mb 72f
10:18 2 7 mph 1024mb 72f
10:12 3 7 mph 1024.2mb 72f
10:06 2 6 mph 1024.1mb 71f
10:00 5 8 mph 1024.2mb 71f
9:54 5 8 mph 1024.3mb 71f
9:48 5 7 mph 1024.5mb 70f
9:42 5 7 mph 1024.5mb 70f
9:36 5 8 mph 1024.5mb 71f
9:30 5 8 mph 1024.5mb 71f
9:24 5 8 mph 1024.5mb 70f
9:18 5 7 mph 1024.5mb 69f
9:12 3 6 mph 1024.6mb 69f
9:06 3 6 mph 1024.7mb 68f
9:00 2 6 mph 1024.7mb 68f
8:54 3 8 mph 1024.7mb 68f
8:48 5 7 mph 1024.7mb 67f
8:42 2 5 mph 1024.7mb 68f
8:36 2 6 mph 1024.7mb 68f
8:30 1 3 mph 1024.6mb 68f
8:24 1 3 mph 1024.4mb 67f
8:18 3 5 mph 1024.4mb 67f
8:12 2 5 mph 1024.5mb 67f
8:06 2 5 mph 1024.5mb 66f
8:00 2 5 mph 1024.4mb 66f
7:54 3 5 mph 1024.3mb 65f
7:48 2 5 mph 1024.4mb 65f
7:42 2 5 mph 1024.3mb 65f
7:36 2 5 mph 1024.3mb 65f
7:30 2 5 mph 1024.2mb 65f
7:24 2 3 mph 1024.2mb 65f
7:18 2 3 mph 1024.2mb 65f
7:12 2 3 mph 1024.2mb 64f
7:06 2 5 mph 1024.1mb 64f
7:00  -  2 mph 1024mb 65f
6:54  -  2 mph 1023.9mb 65f
6:48  -  2 mph 1023.9mb 65f
6:42  -  2 mph 1023.9mb 65f
6:36  -  1 mph 1023.9mb 65f
6:30  -  1 mph 1023.9mb 65f
6:24  -  mph 1023.8mb 65f
6:18  -  mph 1023.9mb 64f
6:12  -  1 mph 1024mb 64f
6:06  -  mph 1024mb 64f
6:00  -  mph 1024.1mb 62f
5:54  -  1 mph 1024.2mb 61f
5:48  -  1 mph 1024.3mb 61f
5:42 1 2 mph 1024.2mb 61f
5:36 1 2 mph 1024.3mb 60f
5:30  -  1 mph 1024.3mb 60f
5:24 1 2 mph 1024.4mb 59f
5:18 1
mph
1024.4mb 59f
5:12 2
mph
1024.4mb 58f
5:06 2
mph
1024.4mb 58f
5:00  -  1 mph 1024.3mb 59f
4:54  -  1 mph 1024.3mb 59f
4:48  -  1 mph 1024.4mb 59f
4:42 1 2 mph 1024.4mb 59f
4:36 1 2 mph 1024.4mb 59f
4:30 1 2 mph 1024.4mb 59f
4:24 2 3 mph 1024.4mb 59f
4:18 3 5 mph 1024.5mb 59f
4:12 2 3 mph 1024.5mb 59f
4:06 2 3 mph 1024.4mb 59f
4:00 2 3 mph 1024.4mb 59f
3:54 2 3 mph 1024.3mb 59f
3:48 2 3 mph 1024.2mb 59f
3:42 2
mph
1024.2mb 59f
3:36 2
mph
1024.1mb 59f
3:30 2 3 mph 1024.1mb -
3:24 2 3 mph 1024.2mb -
3:18 2 3 mph 1024.2mb 59f
3:12 2 3 mph 1024.1mb 59f
3:06 2 3 mph 1024mb 59f
3:00 2 3 mph 1024mb 60f
2:54 3 5 mph 1023.9mb 60f
2:48 3 5 mph 1023.8mb -
2:42 2 3 mph 1023.8mb -
2:36 3
mph
1023.7mb -
2:30 3
mph
1023.7mb 60f
2:24 2 3 mph 1023.6mb 60f
2:18 3
mph
1023.7mb 60f
2:12 2 3 mph 1023.6mb 60f
2:06 2
mph
1023.6mb 60f
2:00  -  mph 1023.7mb 60f
1:54  -  mph 1023.6mb 60f
1:48  -  mph 1023.5mb 60f
1:42  -  mph 1023.5mb 60f
1:36  -  mph 1023.6mb 60f
1:30 2 3 mph 1023.6mb 60f
1:24 2 3 mph 1023.5mb 61f
1:18 2 3 mph 1023.5mb 61f
1:12 2 6 mph 1023.6mb 61f
1:06 2 3 mph 1023.6mb 61f
1:00 1 3 mph 1023.6mb 62f
12:54 2 5 mph 1023.6mb 62f
12:48 2 5 mph 1023.6mb 62f
12:42 2 5 mph 1023.6mb 61f
12:36 2 3 mph 1023.7mb 61f
12:30 2 5 mph 1023.6mb 61f
12:24 2 5 mph 1023.6mb 61f
12:18 2 3 mph 1023.7mb 61f
12:12 2 3 mph 1023.7mb 61f
12:06 2 5 mph 1023.7mb 62f
12:00 1 3 mph 1023.7mb 62f
Sa 06/25 11:54 2 6 mph 1023.7mb 62f
11:48  -  mph 1023.6mb 62f
11:42  -  mph 1023.8mb 61f
11:36  -  mph 1023.9mb 62f
11:30 1 3 mph 1023.9mb 62f
11:24 2 5 mph 1023.9mb 62f
11:18 1 3 mph 1023.9mb 62f
11:12 2 5 mph 1023.9mb 62f
11:06 2 3 mph 1023.9mb 62f
11:00  -  mph 1023.9mb 62f
10:54  -  mph 1023.9mb 62f
10:48  -  mph 1023.9mb -
10:42  -  mph 1024mb -
10:36  -  mph 1024mb -
10:30  -  mph 1024.1mb 62f
10:24  -  mph 1024mb 63f
10:18  -  mph - 63f
10:12  -  mph - 63f
10:06  -  mph - 63f
10:00  -  mph 1024.2mb 63f
9:54  -  mph 1024.2mb 63f
9:48  -  mph 1024.2mb 63f
9:42  -  mph 1024.2mb 63f
9:36  -  mph 1024.2mb 63f
9:30  -  mph 1024.1mb -
9:24  -  mph 1024.1mb -
9:18  -  mph 1024.1mb 64f
9:12  -  mph 1024mb 64f
9:06  -  mph 1023.9mb 64f
9:00  -  mph 1023.7mb -
8:54  -  mph 1023.6mb -
8:48  -  mph 1023.4mb -
8:42  -  mph 1023.4mb -
8:36  -  mph 1023.4mb -
8:30 5 8 mph - -
8:24 5 9 mph - -
8:18  -  mph 1023.4mb 65f
8:12  -  mph 1023.3mb 65f
8:06  -  mph 1023.3mb 65f
8:00  -  mph 1023.2mb 65f
7:54  -  mph 1023.1mb 65f
7:48  -  mph 1023mb 66f
7:42  -  mph 1023mb 66f
7:36  -  mph 1023mb 66f
7:30  -  mph 1023.1mb -
7:24  -  mph 1022.9mb -
7:18  -  mph 1023mb 67f
7:12  -  mph 1022.9mb 67f
7:06  -  mph 1022.8mb 67f
7:00  -  mph 1022.8mb -
6:54  -  mph 1022.9mb -
6:48  -  mph 1022.9mb -
6:42  -  mph 1023mb -
6:36  -  mph 1022.9mb -
6:30  -  mph 1022.9mb -
6:24  -  mph 1022.8mb -
6:18  -  mph 1022.8mb 69f
6:12  -  mph 1022.7mb 71f
6:06  -  mph 1022.8mb 71f
6:00  -  mph 1022.6mb 72f
5:54  -  mph 1022.5mb 74f
5:48  -  mph 1022.4mb -
5:42  -  mph 1022.4mb -
5:36  -  mph 1022.5mb -
5:30 5 9 mph 1022.6mb 74f
5:24 3 7 mph 1022.6mb 74f
5:18 5 9 mph 1022.5mb 74f
5:12 5 11 mph 1022.4mb 73f
5:06 3 8 mph 1022.4mb 73f
5:00 5 9 mph 1022.4mb 73f
4:54 6 9 mph 1022.4mb 73f
4:48 6 10 mph 1022.4mb 73f
4:42 7 9 mph 1022.4mb 73f
4:36 6 9 mph 1022.5mb 73f
4:30 7 13 mph 1022.5mb 73f
4:24 6 10 mph 1022.4mb 73f
4:18 6 11 mph 1022.4mb 73f
4:12 6 10 mph 1022.4mb 74f
4:06 5 7 mph 1022.4mb 74f
4:00 5 11 mph 1022.3mb 75f
3:54 6 10 mph 1022.3mb 74f
3:48 5 9 mph 1022.3mb 74f
3:42 5 10 mph 1022.2mb 75f
3:36 5 8 mph 1022.3mb 75f
3:30 6 10 mph 1022.3mb 75f
3:24 5 9 mph 1022.3mb 75f
3:18 6 11 mph 1022.3mb 74f
3:12 7 14 mph 1022.3mb 74f
3:06 7 14 mph 1022.5mb 74f
3:00 5 10 mph 1022.6mb 75f
2:54 7 13 mph 1022.7mb 75f
2:48 7 13 mph 1022.8mb 74f
2:42 6 14 mph 1022.8mb 74f
2:36 6 11 mph 1022.8mb 76f
2:30 7 10 mph 1022.8mb 75f
2:24 5 9 mph 1022.8mb 76f
2:18 6 11 mph 1022.8mb 76f
2:12 6 11 mph 1022.8mb 75f
2:06 6 10 mph 1022.9mb 75f
2:00 6 10 mph - 75f
1:54 6 9 mph - 75f
1:48 5 8 mph - -
1:42 5 8 mph 1023mb 75f
1:36 6 10 mph 1023mb 76f
1:30 6 10 mph 1023mb 74f
1:24 5 9 mph 1022.9mb 75f
1:18 7 10 mph 1022.9mb 75f
1:12 6 11 mph 1022.9mb 76f
1:06 7 10 mph 1022.9mb 74f
1:00  -  mph 1022.9mb 74f
12:54  -  mph 1022.9mb 76f
12:48 3 5 mph 1022.9mb 77f
12:42 2 5 mph 1023mb 77f
12:36 3 8 mph 1023mb 77f
12:30 2 3 mph 1023mb 77f
12:24 1 3 mph 1023.1mb 77f
12:18 1 3 mph 1023.1mb 77f
12:12 2
mph
1023.1mb 76f
12:06 1 2 mph 1023.1mb 75f
12:00 2 3 mph 1023.1mb 75f
11:54 2
mph
1023.1mb 76f
11:48 1 2 mph 1023.1mb 76f
11:42 2 3 mph 1023.2mb 75f
11:36 2
mph
1023.3mb 75f
11:30 2
mph
1023.3mb 75f
11:24 2 3 mph 1023.5mb 74f
11:18 2
mph
1023.5mb 73f
11:12 2 3 mph 1023.5mb 73f
11:06 2 3 mph 1023.5mb 73f
11:00 2 3 mph 1023.5mb 73f
10:54 3 6 mph 1023.4mb 72f
10:48 2 3 mph 1023.5mb 72f
10:42 3 5 mph 1023.5mb 72f
10:36 2 5 mph 1023.5mb 72f
10:30 2 3 mph 1023.6mb 71f
10:24 2 3 mph 1023.6mb 71f
10:18 2 3 mph 1023.5mb 71f
10:12 2 3 mph 1023.5mb 71f
10:06  -  2 mph 1023.5mb 71f
10:00 1 2 mph 1023.5mb 71f
9:54  -  2 mph 1023.5mb 71f
9:48  -  1 mph 1023.5mb 71f
9:42 1 3 mph 1023.5mb 70f
9:36  -  2 mph 1023.5mb 70f
9:30 2 3 mph 1023.5mb 70f
9:24  -  2 mph 1023.5mb 70f
9:18 2 3 mph 1023.4mb 69f
9:12 2 3 mph 1023.4mb 69f
9:06 2 3 mph 1023.4mb 69f
9:00 2
mph
1023.4mb 69f
8:54 2 3 mph 1023.3mb 69f
8:48 3 6 mph 1023.2mb 69f
8:42 3 6 mph 1023.2mb 68f
8:36 3 6 mph 1023.2mb 67f
8:30 5 6 mph 1023.2mb 67f
8:24 5 6 mph 1023.2mb 67f
8:18 5 7 mph 1023.3mb 67f
8:12 5 7 mph 1023.3mb 67f
8:06 6 8 mph 1023.3mb 67f
8:00 6 9 mph 1023.2mb 66f
7:54 6 8 mph 1023.2mb 66f
7:48 7 9 mph 1023.2mb 66f
7:42 6 8 mph 1023.2mb 66f
7:36 6 7 mph 1023.2mb 66f
7:30 5 7 mph 1023.2mb 66f
7:24 5 8 mph 1023.1mb 66f
7:18 5 6 mph 1023.1mb 65f
7:12 5 7 mph 1023.1mb 65f
7:06 6 7 mph 1023.1mb 64f
7:00 5 7 mph 1023.1mb 64f
6:54 3 7 mph 1023mb 64f
6:48 5 7 mph 1022.9mb 64f
6:42 5 7 mph 1022.9mb 64f
6:36 2 5 mph 1022.9mb 63f
6:30 3 5 mph 1022.9mb 63f
6:24 3 5 mph 1022.8mb 63f
6:18 5 8 mph 1022.7mb 63f
6:12 2 5 mph 1022.6mb 63f
6:06 2 6 mph 1022.5mb 62f
6:00 2 5 mph 1022.4mb 61f
5:54 2 5 mph 1022.3mb 61f
5:48 2 7 mph 1022.2mb 61f
5:42 2 5 mph 1022.2mb 61f
5:36 2 3 mph 1022.2mb 62f
5:30 2 3 mph 1022.1mb 62f
5:24 2
mph
1022mb 61f
5:18 2 5 mph 1022mb 61f
5:12 2 3 mph 1022mb 60f
5:06 2 3 mph 1022mb 60f
5:00 2 3 mph 1022mb 58f
4:54 1 2 mph 1021.9mb 59f
4:48 1 2 mph 1021.7mb 60f
4:42  -  1 mph 1021.7mb 60f
4:36 1 2 mph 1021.7mb 60f
4:30  -  1 mph 1021.7mb 60f
4:24  -  mph 1021.7mb 60f
4:18  -  1 mph 1021.7mb 59f
4:12  -  2 mph 1021.6mb 60f
4:06  -  1 mph 1021.6mb 59f
4:00 1 2 mph 1021.5mb 59f
3:54  -  2 mph 1021.4mb 61f
3:48  -  2 mph 1021.4mb 62f
3:42  -  1 mph 1021.4mb 62f
3:36 2
mph
1021.4mb 62f
3:30 3 5 mph 1021.5mb 61f
3:24 2 3 mph 1021.5mb 61f
3:18 1 2 mph 1021.5mb 60f
3:12 1 2 mph 1021.5mb 60f
3:06 1
mph
1021.5mb 60f
3:00 1 2 mph 1021.6mb 59f
2:54 1 2 mph 1021.6mb 60f
2:48  -  1 mph 1021.6mb 60f
2:42 1 2 mph 1021.6mb 60f
2:36 2 3 mph 1021.5mb 62f
2:30 1
mph
1021.5mb 62f
2:24  -  1 mph 1021.6mb 61f
2:18  -  mph 1021.5mb 60f
2:12  -  mph 1021.5mb 60f
2:06  -  mph 1021.5mb 60f
2:00  -  mph 1021.5mb 61f
1:54  -  mph 1021.5mb 61f
1:48  -  mph 1021.4mb 60f
1:42  -  mph 1021.4mb 60f
1:36  -  mph 1021.4mb 61f
1:30  -  1 mph 1021.4mb 62f
1:24  -  1 mph 1021.4mb 62f
1:18 2
mph
1021.3mb 63f
1:12 1 2 mph 1021.3mb 62f
1:06 1 2 mph 1021.3mb 62f
1:00 2 3 mph 1021.3mb 62f
12:54 1 2 mph 1021.3mb 61f
12:48 1 2 mph 1021.3mb 62f
12:42  -  1 mph 1021.3mb 62f
12:36 1 2 mph 1021.3mb 62f
12:30  -  2 mph 1021.3mb 62f
12:24 2
mph
1021.2mb 62f
12:18 2 3 mph 1021.3mb 62f
12:12  -  2 mph 1021.3mb 62f
12:06 2
mph
1021.2mb 62f
12:00 2 3 mph 1021.1mb 62f
Fr 06/24 11:54 2 3 mph 1021.2mb 62f
11:48  -  mph 1021.1mb -
11:42  -  mph 1021.2mb -
11:36  -  mph 1021.2mb -
11:30 1 2 mph 1021.2mb 62f
11:24 1 2 mph 1021.2mb 62f
11:18 2 3 mph 1021.2mb 62f
11:12 3
mph
1021.2mb 62f
11:06 2 3 mph 1021.2mb 62f
11:00  -  mph 1021.2mb -
10:54  -  mph 1021.2mb -
10:48  -  mph 1021.3mb -
10:42  -  mph 1021.3mb -
10:36  -  mph 1021.3mb -
10:30  -  mph 1021.3mb -
10:24  -  mph 1021.2mb -
10:18  -  mph - 62f
10:12  -  mph - 62f
10:06  -  mph - 63f
10:00 2
mph
- -
9:54 2
mph
- -
9:48  -  mph 1021mb -
9:42  -  mph 1021mb -
9:36  -  mph 1021mb -
9:30  -  mph 1020.9mb 65f
9:24  -  mph 1020.9mb 65f
9:18  -  mph 1020.8mb 65f
9:12  -  mph 1020.7mb 65f
9:06  -  mph 1020.7mb 66f
9:00  -  mph 1020.7mb 66f
8:54  -  mph 1020.6mb 66f
8:48  -  mph 1020.5mb 65f
8:42  -  mph 1020.5mb 65f
8:36  -  mph 1020.4mb 67f
8:30  -  mph 1020.4mb 68f
8:24  -  mph 1020.4mb 68f
8:18  -  mph 1020.4mb 69f
8:12  -  mph 1020.4mb 69f
8:06  -  mph 1020.4mb 69f
8:00  -  mph 1020.4mb 70f
7:54  -  mph 1020.4mb 70f
7:48  -  mph 1020.5mb -
7:42  -  mph 1020.4mb -
7:36  -  mph 1020.4mb -
7:30  -  mph 1020.3mb -
7:24  -  mph 1020.3mb -
7:18  -  mph - 73f
7:12  -  mph - 73f
7:06  -  mph - 73f
7:00  -  mph 1020.2mb -
6:54  -  mph 1020.2mb -
6:48  -  mph 1020.2mb -
6:42  -  mph 1020.2mb -
6:36  -  mph 1020.2mb -
6:30  -  mph 1020.1mb -
6:24  -  mph 1020mb -
6:18  -  mph 1019.9mb 74f
6:12  -  mph 1019.8mb 74f
6:06  -  mph 1019.8mb 74f
6:00  -  mph 1019.8mb 75f
5:54  -  mph 1019.8mb 75f
5:48  -  mph 1019.8mb 75f
5:42  -  mph 1019.8mb 75f
5:36  -  mph 1019.8mb 75f
5:30 7 14 mph 1019.8mb 75f
5:24 6 13 mph 1019.8mb 76f
5:18 6 11 mph 1019.7mb 77f
5:12 5 9 mph 1019.6mb 77f
5:06 5 10 mph 1019.5mb 77f
5:00 3 8 mph 1019.5mb 76f
4:54 5 13 mph 1019.5mb 76f
4:48 6 13 mph 1019.5mb 76f
4:42 3 7 mph 1019.4mb 78f
4:36 3 8 mph 1019.3mb 78f
4:30 6 11 mph 1019.3mb 78f
4:24 6 11 mph 1019.3mb 78f
4:18 7 15 mph 1019.3mb 78f
4:12 7 14 mph 1019.3mb 78f
4:06 7 14 mph 1019.2mb 78f
4:00 3 10 mph 1019.2mb 78f
3:54 7 17 mph 1019.2mb 78f
3:48 3 9 mph 1019.2mb 78f
3:42 5 10 mph 1019.2mb 78f
3:36 6 11 mph 1019.1mb 77f
3:30 6 13 mph 1019.1mb -
3:24 7 13 mph 1019.1mb -
3:18 5 7 mph 1019mb 79f
3:12 2 3 mph 1019mb 81f
3:06 1 5 mph 1019mb 80f
3:00  -  3 mph 1019mb 79f
2:54 2 6 mph 1019mb 79f
2:48 2 5 mph 1019mb 79f
2:42 2 5 mph 1019mb 79f
2:36 3 5 mph 1019mb 80f
2:30 3 5 mph 1018.9mb 80f
2:24 5 6 mph 1018.9mb 80f
2:18 2 5 mph 1019mb 81f
2:12 2 5 mph 1019mb 81f
2:06 2 5 mph 1019mb 81f
2:00 2 5 mph 1019mb 80f
1:54 3 5 mph 1019.1mb 80f
1:48 2 3 mph 1019mb 80f
1:42 2 3 mph 1019mb 80f
1:36 3 6 mph 1019mb 79f
1:30 3 6 mph 1019mb 79f
1:24 3 6 mph 1019mb 80f
1:18 3 5 mph 1019mb 78f
1:12 5 6 mph 1019mb 77f
1:06 6
mph
1019mb 76f
1:00 6
mph
1019mb 78f
12:54 5 8 mph 1019mb 78f
12:48 7 8 mph 1019.1mb 76f
12:42 7 8 mph 1019.1mb 77f
12:36 6 7 mph 1019.1mb 76f
12:30 7 8 mph 1019mb 76f
12:24 6 8 mph 1019mb 75f
12:18 6 8 mph 1019mb 76f
12:12 3 6 mph 1019mb 77f
12:06 5 7 mph 1018.9mb 78f
12:00 2 5 mph 1019mb 78f
11:54 3 7 mph 1019mb 78f
11:48 6 7 mph 1018.9mb 78f
11:42 5 8 mph 1018.8mb 77f
11:36 5 7 mph 1018.8mb 77f
11:30 6 8 mph 1018.8mb 77f
11:24 5 7 mph 1018.7mb 76f
11:18 6 7 mph 1018.7mb 75f
11:12 6 9 mph 1018.7mb 75f
11:06 7 8 mph 1018.7mb 76f
11:00 7 10 mph 1018.6mb 76f
10:54 8 11 mph 1018.6mb 76f
10:48 8 13 mph 1018.6mb 76f
10:42 8 11 mph 1018.5mb 75f
10:36 9 13 mph 1018.5mb 75f
10:30 8 13 mph 1018.4mb 75f
10:24 9 13 mph 1018.4mb 74f
10:18 9 11 mph 1018.4mb 74f
10:12 9 13 mph 1018.4mb 74f
10:06 9 14 mph 1018.3mb 74f
10:00 9 14 mph 1018.3mb 74f
9:54 9 11 mph 1018.3mb 74f
9:48 8 11 mph 1018.3mb 73f
9:42 6 9 mph 1018.3mb 74f
9:36 7 9 mph 1018.2mb 74f
9:30 6 9 mph 1018.1mb 74f
9:24 7 10 mph 1018.1mb 73f
9:18 7 10 mph 1018mb 72f
9:12 7 9 mph 1018mb 72f
9:06 7 9 mph 1017.9mb 71f
9:00 8 11 mph 1017.9mb 71f
8:54 8 10 mph 1017.8mb 71f
8:48 7 10 mph 1017.7mb 70f
8:42 8 10 mph 1017.7mb 70f
8:36 8 11 mph 1017.6mb 69f
8:30 8 13 mph 1017.6mb 69f
8:24 9 13 mph 1017.5mb 69f
8:18 9 13 mph 1017.4mb 68f
8:12 9 13 mph 1017.3mb 68f
8:06 8 11 mph 1017.3mb 68f
8:00 8 11 mph 1017.2mb 67f
7:54 8 11 mph 1017.1mb 67f
7:48 7 11 mph 1017mb 67f
7:42 8 11 mph 1016.9mb 67f
7:36 8 11 mph 1016.8mb 66f
7:30 8 11 mph 1016.7mb 66f
7:24 8 13 mph 1016.6mb 66f
7:18 8 13 mph 1016.5mb 66f
7:12 9 13 mph 1016.5mb 65f
7:06 8 11 mph 1016.4mb 65f
7:00 7 11 mph 1016.3mb 65f
6:54 9 13 mph 1016.3mb 65f
6:48 7 11 mph 1016.3mb 65f
6:42 8 10 mph 1016.2mb 65f
6:36 7 10 mph 1016.2mb 65f
6:30 7 10 mph 1016.1mb 65f
6:24 7 10 mph 1016.1mb 65f
6:18 6 9 mph 1016mb 65f
6:12 7 9 mph 1015.9mb 65f
6:06 7 11 mph 1015.8mb 64f
6:00 7 9 mph 1015.7mb 64f
5:54 6 9 mph 1015.7mb 63f
5:48 3 5 mph 1015.6mb 63f
5:42 2 3 mph 1015.5mb 63f
5:36 2 5 mph 1015.3mb 63f
5:30 2 5 mph 1015.3mb 63f
5:24 2 5 mph 1015.2mb 62f
5:18 3 6 mph 1015.2mb 63f
5:12 3 6 mph 1015.1mb 63f
5:06 3 7 mph 1015mb 63f
5:00 5 7 mph 1014.8mb 63f
4:54 6 9 mph 1014.7mb 63f
4:48 6 8 mph 1014.6mb 63f
4:42 5 8 mph 1014.4mb 62f
4:36 5 7 mph 1014.4mb 62f
4:30 2 5 mph 1014.3mb 62f
4:24 2 6 mph 1014.3mb 63f
4:18 3 6 mph 1014.3mb 64f
4:12 3 6 mph 1014.2mb 64f
4:06 5 9 mph 1014.1mb 64f
4:00 6 8 mph 1014mb 64f
3:54 5 7 mph 1013.9mb 64f
3:48 3 6 mph 1013.9mb 64f
3:42 3 6 mph 1013.8mb 64f
3:36 5 7 mph 1013.6mb 64f
3:30 5 7 mph 1013.5mb 64f
3:24 5 7 mph 1013.5mb 64f
3:18 5 7 mph 1013.4mb 64f
3:12 5 7 mph 1013.2mb 65f
3:06 3 5 mph 1013.1mb 64f
3:00 3 6 mph 1013.2mb 64f
2:54 5 7 mph 1013.1mb 64f
2:48 5 8 mph 1013mb 64f
2:42 3 6 mph 1013mb 65f
2:36 3 5 mph 1012.9mb 65f
2:30 2 3 mph 1012.9mb 65f
2:24 2 5 mph 1012.8mb 65f
2:18  -  mph 1012.8mb 65f
2:12  -  mph 1012.8mb 65f
2:06  -  mph 1012.8mb 65f
2:00  -  mph 1012.7mb 65f
1:54  -  mph 1012.8mb 65f
1:48  -  mph 1012.7mb 65f
1:42  -  mph 1012.6mb 65f
1:36  -  mph 1012.7mb 65f
1:30 2 3 mph 1012.7mb 65f
1:24 3
mph
1012.7mb 65f
1:18 3 5 mph 1012.7mb 66f
1:12 3
mph
1012.6mb 65f
1:06 3
mph
1012.6mb 65f
1:00 3 5 mph 1012.6mb 65f
12:54 2
mph
1012.6mb 66f
12:48 1 3 mph 1012.6mb 65f
12:42 2 5 mph 1012.6mb 65f
12:36 3 5 mph 1012.5mb 65f
12:30 3
mph
1012.5mb 65f
12:24 2 3 mph 1012.5mb 65f
12:18 2 3 mph 1012.4mb 66f
12:12 3 5 mph 1012.4mb 66f
12:06 3 5 mph 1012.4mb 66f
12:00 3 5 mph 1012.4mb 66f
Do 06/23 11:54 3 6 mph 1012.5mb 66f
11:48  -  mph 1012.5mb -
11:42  -  mph 1012.4mb -
11:36  -  mph 1012.5mb -
11:30 3 6 mph 1012.5mb 65f
11:24 2
mph
1012.8mb 65f
11:18 3 5 mph 1012.8mb 66f
11:12 2 5 mph 1012.4mb 66f
11:06 2 6 mph 1012.4mb 66f
11:00  -  mph 1012.3mb -
10:54  -  mph 1012.3mb -
10:48  -  mph 1012.2mb -
10:42  -  mph 1012.3mb -
10:36  -  mph 1012.1mb -
10:30  -  mph 1012mb -
10:24  -  mph 1012mb -
10:18 3 6 mph 1011.9mb -
10:12 3 6 mph 1011.8mb -
10:06 3 6 mph 1011.8mb -
10:00 3 7 mph 1011.7mb -
9:54 5 7 mph 1011.6mb -
9:48 2 5 mph 1011.6mb -
9:42 2 5 mph 1011.5mb -
9:36 2 6 mph 1011.4mb -
9:30  -  mph 1011.4mb -
9:24  -  mph 1011.4mb -
9:18  -  mph - 68f
9:12  -  mph - 68f
9:06  -  mph - 68f
9:00  -  mph 1011mb -
8:54  -  mph 1010.9mb -
8:48  -  mph 1010.9mb -
8:42  -  mph 1010.8mb -
8:36  -  mph 1010.8mb -
8:30  -  mph 1010.6mb -
8:24  -  mph 1010.6mb -
8:18  -  mph 1010.6mb 69f
8:12  -  mph 1010.6mb 69f
8:06  -  mph 1010.6mb 69f
8:00  -  mph 1010.5mb -
7:54  -  mph 1010.5mb -
7:48  -  mph 1010.5mb -
7:42  -  mph 1010.5mb -
7:36  -  mph 1010.4mb -
7:30  -  mph 1010.4mb -
7:24  -  mph 1010.5mb -
7:18  -  mph 1010.4mb -
7:12  -  mph 1010.4mb -
7:06  -  mph 1010.4mb -
7:00  -  mph 1010.3mb -
6:54  -  mph 1010.4mb -
6:48  -  mph 1010.3mb -
6:30  -  mph 1010.4mb -
6:24  -  mph 1010.4mb -
6:18  -  mph 1010.4mb 71f
6:12  -  mph 1010.4mb 71f
6:06  -  mph 1010.3mb 72f
6:00  -  mph 1010.3mb 71f
5:54  -  mph 1010.4mb 71f
5:48  -  mph 1010.4mb -
5:42  -  mph 1010.4mb -
5:36  -  mph 1010.4mb -
5:30 6 11 mph 1010.5mb 71f
5:24 6 11 mph 1010.6mb 71f
5:18 5 9 mph 1010.6mb 71f
5:12 2 7 mph 1010.6mb 71f
5:06 3 7 mph 1010.6mb 71f
5:00 3 7 mph 1010.7mb 71f
4:54 3 7 mph 1010.6mb 72f
4:48 3 7 mph 1010.6mb 72f
4:42 3 7 mph 1010.6mb 72f
4:36 3 9 mph 1010.6mb 72f
4:30 3 9 mph 1010.6mb 72f
4:24 3 7 mph 1010.7mb 72f
4:18 3 7 mph 1010.8mb 72f
4:12 5 7 mph 1010.8mb 72f
4:06 5 8 mph 1010.8mb 71f
4:00 5 8 mph 1010.8mb 71f
3:54 3 6 mph 1010.9mb 71f
3:48 5 8 mph 1010.9mb 71f
3:42 5 8 mph 1010.9mb 71f
3:36 6 10 mph 1010.9mb 74f
3:30 6 13 mph 1010.8mb 74f
3:24 6 10 mph 1010.8mb 76f
3:18 5 11 mph 1010.7mb 76f
3:12 5 10 mph 1010.7mb 75f
3:06 5 10 mph 1010.6mb 75f
3:00 3 8 mph 1010.6mb 76f
2:54 3 9 mph 1010.7mb 75f
2:48 6 11 mph 1010.8mb 73f
2:42 3 10 mph 1010.9mb 72f
2:36 6 10 mph 1011mb 74f
2:30 6 9 mph 1011mb 75f
2:24 3 13 mph 1011mb 77f
2:18 3 10 mph 1011mb 78f
2:12 3 9 mph 1011.1mb 76f
2:06 5 11 mph 1011.1mb 76f
2:00 5 8 mph 1011.2mb 76f
1:54 7 14 mph 1011.2mb 74f
1:48 7 15 mph 1011.3mb 74f
1:42 6 11 mph 1011.3mb 74f
1:36 5 9 mph 1011.3mb 74f
1:30 3 7 mph 1011.4mb 74f
1:24 3 8 mph 1011.5mb 75f
1:18 3 8 mph 1011.6mb 75f
1:12 5 9 mph 1011.7mb 75f
1:06 3 7 mph 1011.7mb 76f
1:00 3 7 mph 1011.8mb -
12:54 6 8 mph 1011.9mb -
12:48 6 9 mph 1011.9mb 74f
12:42 3 7 mph 1012mb 75f
12:36 5 9 mph 1012mb 74f
12:30 6 9 mph 1012mb 74f
12:24 5 9 mph 1012.1mb 74f
12:18 6 8 mph 1012.2mb 75f
12:12 5 7 mph 1012.3mb 75f
12:06 5 8 mph 1012.3mb 75f
12:00 1 2 mph 1012.4mb 77f
11:54 2 3 mph 1012.4mb 77f
11:48 2 3 mph 1012.5mb 75f
11:42 3
mph
1012.6mb 75f
11:36 3 5 mph 1012.6mb 74f
11:30  -  mph 1012.7mb 74f
11:24  -  mph 1012.7mb 73f
11:18 3 5 mph 1012.7mb 73f
11:12 2 3 mph 1012.8mb 73f
11:06 2
mph
1012.9mb 73f
11:00 1 2 mph 1013mb 73f
10:54 2
mph
1013mb 71f
10:48 1 2 mph 1013mb 72f
10:42 1 2 mph 1013mb 72f
10:36 1 2 mph 1013mb 72f
10:30 2 3 mph 1013mb 72f
10:24 1 2 mph 1013mb 71f
10:18 1 2 mph 1013mb 71f
10:12 1 2 mph 1013mb 71f
10:06 1 2 mph 1013mb 72f
10:00 2 3 mph 1013mb 71f
9:54 1 2 mph 1012.9mb 72f